SL-16 DEB, 24300

Orbit data source: Space-Track

SL-16 DEB, 24300 is space debris in LEO originally from a launch on Wed, 04 Sep 1996 UTC launched from the Tyuratam Missile And Space Complex (TTMTR). Debris objects in space refer to the collection of defunct objects orbiting the Earth. Examples of debris include non-operational satellites, rocket bodies, and fragments generated from explosions, collisions, or faulty payload assembly.

Loading next visibility...
Identifier
24300, 1996-051D
Orbit
LEO
Country
Flag of CISCIS
Related business
Manufacturer
Yuzhnoe
Mission
Spacecraft
Bus & Motor
SEP MOTOR COVER, Unknown motor
Mass
~0 kg wet, ~1 kg dry
Launch date (UTC)
1996-09-04 (30 years ago)
Launch vehicle
Unknown
Launch site
Tyuratam Missile And Space Complex (TTMTR)
Object type
Payload
Rocket body
Debris
Shape & HBR
Unknown shape, 0.1 m
Radar Cross Section
Small (<0.1 m²)

Expand to show TLE details & history
Last TLE update: 16 hours ago

TLE from 16 hours ago
0 SL-16 DEB
1 24300U 96051D   26093.87903556  .00000260  00000-0  27707-3 0  9997
2 24300  71.0261 257.5504 0195665 192.5398 318.8392 13.74763885483073
Epoch: 2026-04-03T21:05Z
TLE epoch observation values (Epoch: 2026-04-03T21:05:48.672Z)
Latitude
28.38826°
Longitude
-81.76046°
Altitude
878.276 km
Speed
7.47 km/s
True Right ascension
04h 27m 35s
True Declination
28° 14' 49"
Sunlit
Object was in daylight at epoch
Visualization orbit readout
Latitude
Unknown
Longitude
Unknown
Altitude
Unknown
Speed
Unknown
Apparent Right ascension
Unknown
Apparent Declination
Unknown
Sunlit
N/A
Visualization observer readout
Local Sidereal Time
18:46:05
Azimuth
Unknown
Elevation
Unknown
Doppler factor
Unknown
Orbital elements
Apogee altitude
1,124.461 km
Perigee altitude
836.496 km
Semi-major axis
7,358.615 km
Eccentricity
0.01957
Inclination
71.0261°
RAAN
257.5504°
Arg. of periapsis
192.5398°
True anomaly
317.33598°
Mean anomaly
318.8392°
Eccentric anomaly
318.09037°
Mean motion
3.43834 °/min
Orbital period
104.7 mins
BSTAR
0.00027707
Loading maneuver chart data...
Computing Atmospheric mass density...
Loading historical data...
Loading historical data...
Loading historical data...
Loading historical data...
Loading historical data...
Loading historical data...
Loading historical data...

Documentation

Showing up to 5 results
|